Vertical_Velocity
0 -1 -0 0 -1 -3 -0 -3 -10 2 0 -4 -7 -4 16 6 6 7 -6 1 -0 -2 -0 1 -2 3 -5 0 -0 -1 3 -3 1 -1 -0 1 3 0 -2 -4 6 -4 -8 2
3 1 3 2 -2 -3 -6 -6 2 7 -2 -13 7 7 -7 -6 5 11 -1 -0 6 9 2 -13 -4 5 2 3 4 -7 6 0 1 -1 -2 3 1 0 1 -2 -4 6 -8 3
-5 -2 -6 -5 2 3 -6 -7 -23 0 4 16 -1 9 -3 -18 2 -3 7 -1 -5 3 4 1 -2 -5 6 1 2 0 -2 -2 5 1 -0 -2 2 2 -0 -2 -2 -8 0 -1
1 3 4 8 -5 -3 -2 1 -20 10 -25 6 2 10 -2 0 -3 8 12 -2 -3 9 -10 2 2 0 -5 3 2 2 -4 1 -4 6 4 -3 -1 3 1 -1 9 -10 -5 0
-3 -2 7 -4 1 10 -5 -9 -4 -1 -25 6 0 11 1 8 15 -9 15 -19 22 8 -16 9 8 -6 -2 7 5 -3 3 0 -5 6 1 2 -4 -1 2 1 6 -1 -3 1
-3 -4 -0 4 -1 -0 13 -0 1 -8 0 -4 -5 13 -7 -6 12 11 2 7 4 -4 7 8 6 -3 2 -3 -2 7 -0 2 0 -7 7 -4 -19 17 -2 3 -3 4 -1 7
1 -0 -2 -1 1 -3 -4 14 -10 3 -32 0 -1 -5 3 5 4 -14 9 -3 2 5 9 4 1 -4 -1 -5 -11 11 -1 5 -5 1 0 -15 17 9 -0 1 5 1 1 2
1 2 1 -2 3 1 4 0 1 -0 -23 -4 4 7 7 -0 6 1 -6 6 15 6 7 5 1 -1 -14 11 5 -3 1 2 -4 -12 -0 9 0 6 6 -7 9 -2 7 2
-3 -0 -1 -1 -1 -3 -4 4 4 1 -11 7 1 -4 -0 4 1 19 -5 18 6 1 5 1 -29 -15 18 -12 -1 -1 7 2 -7 8 -8 -3 5 9 4 -1 -3 2 -2 5
1 0 -1 -0 -1 0 -6 5 7 3 -5 14 -2 0 2 11 12 16 1 7 -2 4 1 -3 -7 -14 19 -33 1 2 0 -1 -8 5 -12 -3 12 7 2 -3 0 -0 2 -1
-1 0 2 2 2 5 -3 11 2 6 -9 15 5 1 -8 0 7 1 11 18 -11 -0 4 4 4 -17 10 4 13 2 6 7 1 7 -9 -23 12 11 -2 1 -6 1 3 1
0 -0 1 3 3 4 1 5 3 0 -6 5 -1 4 6 -3 36 12 -15 11 9 3 5 -4 4 -5 6 13 -0 1 -6 7 10 5 4 9 1 4 -8 -2 1 0 4 4
-0 1 2 4 4 5 1 -2 2 1 -2 3 3 8 9 17 30 7 20 9 7 1 13 13 6 -2 5 2 2 7 5 9 5 6 7 7 5 -6 -1 1 2 3 4 3
1 2 2 2 3 2 3 -1 2 -1 -2 -7 3 3 7 10 16 25 14 5 10 6 5 7 4 -0 -0 1 2 5 7 9 16 8 15 3 5 -9 5 1 2 -1 2 2
1 1 3 3 2 3 2 2 3 4 -1 -2 3 -0 -1 7 5 14 14 14 10 0 1 -5 -0 -3 -1 4 2 3 9 7 3 13 4 5 13 -3 6 5 2 3 5 4
1 1 1 1 1 4 -0 2 6 0 -1 -2 4 3 -3 -1 8 4 5 11 6 4 3 1 -4 0 1 -4 -1 -3 6 2 5 11 5 6 8 5 6 3 2 0 1 2
-2 1 1 3 2 4 0 -0 2 4 0 -1 6 -2 -4 1 3 6 6 6 11 8 -2 3 -1 1 5 1 -2 -3 -5 -2 1 4 3 2 9 3 1 3 5 4 2 3
-0 -1 1 2 2 1 1 2 4 2 1 3 1 3 4 2 0 -13 -1 1 3 6 5 3 2 3 7 -2 -3 -1 -2 -3 -1 1 1 -2 2 2 -0 2 2 2 2 3
-0 -3 1 2 2 3 3 2 2 2 2 4 1 -3 -2 6 11 -10 -5 1 -3 -4 1 1 5 4 2 1 -2 1 1 3 1 -1 0 -1 -0 1 1 1 2 2 1 0
-2 2 1 1 1 2 2 0 2 3 2 6 4 5 5 7 10 7 6 -2 -2 -0 0 -0 6 -0 3 2 2 -0 -1 0 2 2 4 -4 -5 -1 1 -1 -2 -2 -2 -2
-1 -2 -2 0 1 1 2 2 2 4 4 4 3 4 7 3 4 4 7 11 12 3 3 12 2 5 -2 1 5 2 2 -0 1 1 0 0 1 1 1 0 -1 -1 -1 -1
0 -0 -0 -1 -1 -0 1 2 1 -2 -4 -2 0 -0 3 4 6 10 3 5 -3 5 2 9 6 2 -0 2 2 3 4 6 3 2 2 2 2 3 -0 -0 0 0 0 -1
-3 -1 2 2 2 1 2 1 -0 0 -0 1 0 -1 2 -2 2 7 2 20 10 8 10 7 6 2 4 3 9 6 8 6 1 3 2 3 5 3 1 -2 -2 -3 -3 -1
-1 -3 2 -0 2 0 0 0 -1 -3 -2 -1 -1 -1 -0 2 0 -1 5 -0 7 5 3 4 2 5 4 5 8 9 6 4 1 3 5 -3 2 2 2 2 -1 -2 -3 -2
-3 -0 -1 2 3 1 0 0 -1 -1 -2 -2 -1 -1 1 -1 3 2 1 2 4 4 3 7 11 8 8 7 6 3 5 3 3 4 6 9 3 -2 -2 -3 -5 -6 -4 -1
-5 -3 -2 0 -1 -1 -1 -1 -1 -1 -1 -1 -2 -0 -0 1 2 1 2 3 2 2 5 6 6 6 5 4 5 5 4 4 1 2 0 1 -1 0 -7 -1 -7 -6 -3 -2
-5 -3 -1 -2 -1 -1 -0 -1 -0 -1 -1 -0 -1 -0 1 1 2 1 3 2 4 4 4 2 1 -0 -2 -2 -2 -2 1 1 0 -1 -4 3 3 -8 -3 -3 -8 -3 -1 -2
Height
5711 5707 5702 5697 5692 5688 5685 5685 5683 5681 5677 5677 5674 5674 5676 5675 5676 5680 5679 5678 5679 5680 5678 5677 5675 5677 5675 5675 5673 5670 5669 5666 5668 5666 5662 5659 5658 5655 5652 5647 5649 5644 5643 5644
5695 5690 5685 5681 5676 5671 5668 5667 5669 5665 5658 5656 5657 5659 5657 5658 5660 5661 5663 5662 5665 5667 5666 5663 5665 5665 5668 5666 5664 5662 5662 5659 5660 5660 5660 5656 5653 5650 5649 5646 5642 5641 5638 5640
5678 5672 5666 5660 5655 5650 5647 5645 5645 5642 5641 5642 5636 5635 5640 5639 5640 5641 5643 5647 5648 5650 5653 5655 5650 5654 5656 5655 5654 5653 5651 5651 5652 5654 5651 5651 5648 5646 5643 5641 5641 5636 5633 5633
5660 5654 5650 5644 5636 5630 5626 5623 5622 5619 5617 5619 5614 5615 5621 5619 5618 5620 5624 5627 5632 5635 5635 5638 5638 5641 5640 5642 5644 5642 5639 5642 5642 5644 5645 5641 5644 5640 5639 5638 5637 5633 5632 5629
5642 5636 5628 5623 5619 5610 5602 5599 5594 5591 5590 5595 5590 5593 5599 5597 5602 5595 5601 5606 5614 5616 5616 5620 5626 5624 5625 5629 5632 5630 5630 5628 5631 5633 5635 5633 5633 5635 5632 5633 5632 5630 5629 5628
5620 5613 5606 5599 5592 5587 5577 5568 5570 5557 5565 5563 5560 5572 5571 5572 5575 5578 5580 5585 5590 5593 5601 5604 5607 5608 5609 5610 5612 5619 5617 5619 5619 5617 5625 5620 5618 5631 5627 5626 5626 5626 5624 5625
5597 5588 5580 5572 5563 5555 5547 5541 5532 5527 5529 5527 5531 5537 5541 5545 5549 5553 5561 5564 5567 5574 5581 5582 5585 5588 5592 5594 5594 5599 5604 5607 5607 5603 5610 5603 5616 5617 5620 5618 5618 5617 5618 5617
5569 5558 5547 5537 5529 5520 5514 5509 5504 5498 5495 5501 5505 5508 5514 5521 5530 5533 5537 5547 5551 5555 5559 5563 5563 5569 5573 5578 5582 5584 5588 5591 5592 5591 5594 5596 5599 5607 5608 5607 5612 5608 5610 5610
5537 5526 5514 5505 5498 5492 5488 5487 5481 5476 5472 5482 5480 5484 5494 5503 5510 5518 5524 5531 5530 5535 5538 5542 5541 5547 5559 5560 5563 5568 5572 5574 5577 5580 5578 5580 5586 5595 5595 5596 5598 5601 5600 5601
5504 5493 5485 5480 5476 5473 5469 5469 5464 5458 5455 5466 5465 5470 5474 5487 5494 5500 5510 5512 5515 5518 5521 5522 5526 5530 5541 5541 5544 5549 5552 5555 5560 5565 5565 5565 5572 5577 5583 5584 5588 5588 5590 5591
5476 5470 5465 5463 5461 5457 5453 5454 5447 5444 5441 5453 5455 5458 5460 5470 5480 5485 5495 5498 5500 5504 5506 5509 5513 5514 5521 5525 5531 5531 5536 5540 5544 5548 5549 5552 5560 5565 5567 5568 5569 5571 5576 5581
5456 5453 5451 5449 5447 5444 5440 5439 5434 5431 5432 5442 5445 5449 5451 5460 5468 5472 5474 5484 5490 5492 5493 5496 5500 5502 5505 5511 5514 5517 5521 5526 5532 5536 5539 5542 5542 5544 5547 5553 5556 5560 5562 5567
5444 5441 5439 5437 5435 5433 5429 5426 5423 5421 5422 5430 5435 5439 5442 5447 5453 5460 5465 5469 5478 5482 5485 5488 5490 5493 5497 5499 5503 5507 5509 5514 5517 5521 5525 5527 5529 5530 5534 5538 5543 5546 5550 5553
5435 5432 5429 5427 5425 5423 5420 5417 5414 5412 5411 5416 5425 5428 5431 5435 5440 5445 5449 5457 5464 5470 5474 5477 5480 5484 5488 5490 5493 5497 5500 5503 5507 5510 5513 5513 5515 5517 5522 5526 5529 5532 5535 5539
5427 5424 5420 5418 5416 5414 5412 5410 5408 5406 5404 5405 5414 5417 5421 5424 5429 5434 5440 5445 5450 5456 5463 5467 5472 5476 5480 5482 5485 5487 5490 5493 5495 5499 5499 5503 5506 5507 5511 5514 5516 5519 5522 5524
5418 5414 5412 5410 5408 5407 5405 5404 5403 5400 5397 5397 5403 5407 5410 5416 5420 5425 5429 5435 5440 5446 5452 5458 5463 5468 5472 5473 5475 5477 5481 5483 5486 5489 5490 5493 5496 5498 5500 5502 5504 5506 5508 5510
5406 5404 5403 5402 5401 5400 5400 5399 5398 5396 5392 5390 5393 5396 5401 5406 5409 5414 5421 5426 5432 5437 5442 5448 5454 5459 5462 5464 5467 5469 5471 5473 5475 5477 5480 5483 5485 5487 5489 5490 5493 5494 5497 5499
5395 5393 5395 5394 5394 5394 5394 5394 5393 5390 5388 5387 5386 5387 5393 5398 5401 5404 5411 5418 5424 5430 5436 5441 5445 5449 5452 5454 5458 5460 5462 5464 5466 5468 5469 5472 5474 5476 5478 5480 5481 5482 5484 5486
5386 5385 5386 5387 5388 5389 5389 5389 5389 5387 5387 5384 5383 5383 5386 5390 5393 5398 5405 5411 5417 5423 5429 5434 5438 5437 5441 5445 5448 5451 5453 5456 5457 5458 5460 5462 5464 5466 5467 5469 5470 5471 5472 5473
5383 5380 5382 5383 5383 5384 5386 5386 5387 5386 5385 5383 5383 5383 5384 5386 5389 5391 5398 5402 5409 5415 5421 5425 5427 5429 5433 5435 5439 5442 5443 5445 5447 5449 5451 5451 5453 5454 5456 5457 5458 5458 5459 5460
5382 5380 5379 5380 5380 5381 5382 5383 5384 5384 5384 5383 5383 5383 5383 5384 5385 5388 5392 5395 5400 5406 5412 5417 5417 5420 5425 5428 5429 5432 5435 5436 5437 5438 5440 5441 5442 5443 5444 5444 5445 5446 5447 5447
5380 5378 5377 5378 5378 5379 5380 5381 5382 5382 5381 5382 5383 5384 5385 5385 5385 5387 5389 5392 5396 5399 5403 5407 5407 5411 5415 5418 5420 5422 5424 5424 5425 5427 5428 5429 5431 5432 5432 5433 5434 5434 5435 5435
5382 5379 5378 5378 5378 5379 5379 5379 5380 5380 5380 5381 5382 5383 5385 5386 5387 5388 5390 5394 5395 5396 5396 5399 5401 5404 5408 5410 5412 5413 5414 5414 5415 5417 5418 5418 5419 5420 5422 5423 5423 5423 5424 5424
5387 5383 5382 5381 5381 5381 5381 5381 5380 5379 5379 5379 5379 5380 5383 5385 5387 5388 5389 5390 5392 5393 5394 5396 5398 5400 5402 5404 5405 5405 5405 5406 5407 5408 5409 5410 5411 5410 5411 5412 5413 5413 5414 5413
5393 5390 5388 5387 5386 5385 5384 5383 5382 5380 5378 5377 5377 5377 5379 5381 5383 5385 5387 5389 5389 5391 5392 5393 5394 5395 5396 5397 5398 5398 5399 5400 5401 5400 5400 5400 5401 5401 5402 5402 5402 5402 5402 5401
5398 5395 5393 5391 5390 5388 5386 5384 5382 5380 5379 5377 5376 5375 5376 5377 5378 5381 5383 5385 5386 5389 5389 5390 5390 5391 5391 5392 5392 5393 5393 5393 5394 5394 5394 5393 5392 5393 5394 5393 5392 5392 5391 5389
5402 5399 5397 5396 5394 5393 5391 5388 5385 5382 5380 5377 5376 5375 5375 5376 5377 5378 5380 5381 5383 5384 5385 5386 5386 5386 5386 5386 5387 5387 5386 5385 5385 5384 5384 5384 5383 5384 5383 5382 5380 5379 5377 5375